Weather History for Idaho Falls, ID

Change the Weather History Date:

Friday, February 15, 2013

  Actual Average Record
Temperature  
Mean Temperature 19 °F 24 °F  
Max Temperature 28 °F 34 °F 50 °F (1961)
Min Temperature 10 °F 14 °F -17 °F (1989)
Degree Days  
Heating Degree Days 46 41  
Month to date heating degree days 607 641  
Since 1 July heating degree days 4991 5304  
Cooling Degree Days 0 0  
Month to date cooling degree days 0 0  
Year to date cooling degree days 0 0  
Moisture  
Dew Point 17 °F    
Average Humidity 86    
Maximum Humidity 96    
Minimum Humidity 75    
Precipitation  
Precipitation 0.00 in 0.02 in 1.03 in (1986)
Month to date precipitation T 0.32  
Year to date precipitation 0.31 1.01  
Sea Level Pressure  
Sea Level Pressure 30.54 in    
Wind  
Wind Speed 4 mph (NW)    
Max Wind Speed 10 mph    
Max Gust Speed 13 mph    
Visibility 7 miles    
Events Fog    
T = Trace of Precipitation, MM = Missing Value Source: NWS Daily Summary

Daily Weather History Graph

Daily Weather History Graph

Search for Another Location

Airport:

Trip Planner

Search our weather history database for the weather conditions in past years. The results will help you decide how hot, cold, wet, or windy it might be!

Date:

Astronomy

Feb. 15, 2013 Rise Set
Actual Time 7:26 AM MST 5:59 PM MST
Civil Twilight 6:56 AM MST 6:28 PM MST
Nautical Twilight 6:23 AM MST 7:02 PM MST
Astronomical Twilight 5:50 AM MST 7:35 PM MST
Moon 9:52 AM MST (2/15) No Moon Set
Length of Visible Light 11h 31m
Length of Day
10h 33m
Waxing Crescent, 31% of the Moon is Illuminated
Feb 15
Waxing Crescent
Feb 17
First Quarter
Feb 25
Full
Mar 4
Last Quarter
Mar 11
New

Hourly Weather History & Observations

Time (MST) Temp. Windchill Dew Point Humidity Pressure Visibility Wind Dir Wind Speed Gust Speed Precip Events Conditions
12:53 AM 24.1 °F 15.2 °F 19.9 °F 84% 30.49 in 10.0 mi SSW 8.1 mph - N/A   Clear
1:53 AM 21.9 °F 15.7 °F 19.0 °F 89% 30.51 in 10.0 mi SSW 4.6 mph - N/A   Clear
2:53 AM 19.9 °F 10.1 °F 17.1 °F 89% 30.53 in 9.0 mi SW 8.1 mph - N/A   Clear
3:53 AM 21.0 °F - 18.0 °F 88% 30.52 in 10.0 mi Calm Calm - N/A   Clear
4:53 AM 21.0 °F 12.4 °F 17.1 °F 85% 30.53 in 6.0 mi SSW 6.9 mph - N/A   Clear
5:53 AM 21.9 °F 11.7 °F 19.0 °F 89% 30.53 in 10.0 mi SSW 9.2 mph - N/A   Clear
6:13 AM 23.0 °F 17.0 °F 19.4 °F 86% 30.43 in 10.0 mi SW 4.6 mph - N/A   Scattered Clouds
6:43 AM 19.4 °F 14.3 °F 17.6 °F 93% 30.45 in 5.0 mi West 3.5 mph - N/A   Mostly Cloudy
6:50 AM 15.8 °F 6.1 °F 14.0 °F 93% 30.45 in 0.8 mi West 6.9 mph - N/A   Mostly Cloudy
6:53 AM 15.1 °F 6.4 °F 12.0 °F 88% 30.59 in 0.5 mi WSW 5.8 mph - N/A Fog Light Freezing Fog
6:57 AM 14.0 °F 6.5 °F 10.4 °F 86% 30.45 in 0.2 mi WSW 4.6 mph - N/A Fog Light Freezing Fog
7:31 AM 10.4 °F 0.8 °F 8.6 °F 92% 30.46 in 10.0 mi WNW 5.8 mph - N/A Fog Shallow Fog
7:53 AM 12.0 °F 5.9 °F 8.1 °F 84% 30.62 in 0.2 mi North 3.5 mph - N/A Fog Light Freezing Fog
8:11 AM 12.2 °F - 10.4 °F 92% 30.46 in 10.0 mi Calm Calm - N/A   Clear
8:53 AM 14.0 °F - 12.0 °F 92% 30.65 in 10.0 mi Calm Calm - N/A   Clear
9:53 AM 16.0 °F 8.8 °F 12.0 °F 84% 30.63 in 10.0 mi North 4.6 mph - N/A   Clear
10:48 AM 19.4 °F 11.5 °F 15.8 °F 86% 30.50 in 8.0 mi North 5.8 mph - N/A   Partly Cloudy
10:53 AM 19.0 °F 10.0 °F 15.1 °F 85% 30.63 in 7.0 mi NNW 6.9 mph - N/A   Partly Cloudy
11:00 AM 19.4 °F 11.5 °F 15.8 °F 86% 30.50 in 1.5 mi North 5.8 mph - N/A Fog Light Freezing Fog
11:01 AM 19.4 °F 11.5 °F 15.8 °F 86% 30.50 in 0.5 mi North 5.8 mph - N/A Fog Shallow Fog
11:42 AM 21.2 °F 16.4 °F 17.6 °F 86% 30.50 in 1.0 mi NNW 3.5 mph - N/A Fog Shallow Fog
11:47 AM 19.4 °F 12.8 °F 17.6 °F 93% 30.50 in 5.0 mi NNW 4.6 mph - N/A Fog Shallow Fog
11:53 AM 19.9 °F 12.1 °F 17.1 °F 89% 30.63 in 5.0 mi NNW 5.8 mph - N/A Fog Shallow Fog
12:53 PM 23.0 °F 17.0 °F 19.0 °F 85% 30.62 in 6.0 mi North 4.6 mph - N/A   Haze
1:53 PM 26.1 °F 19.4 °F 21.9 °F 84% 30.59 in 10.0 mi North 5.8 mph - N/A   Haze
2:53 PM 26.1 °F 17.6 °F 19.9 °F 78% 30.60 in 10.0 mi North 8.1 mph - N/A   Clear
3:53 PM 27.0 °F 19.5 °F 19.9 °F 75% 30.59 in 10.0 mi North 6.9 mph - N/A   Clear
4:53 PM 27.0 °F 21.6 °F 19.0 °F 72% 30.58 in 10.0 mi NNE 4.6 mph - N/A   Clear
5:53 PM 21.9 °F - 17.1 °F 82% 30.58 in 10.0 mi Calm Calm - N/A   Mostly Cloudy
6:53 PM 23.0 °F 17.0 °F 18.0 °F 81% 30.60 in 10.0 mi North 4.6 mph - N/A   Mostly Cloudy
7:29 PM 21.2 °F 13.6 °F 17.6 °F 86% 30.43 in 10.0 mi NNW 5.8 mph - N/A   Mostly Cloudy
7:53 PM 24.1 °F 19.7 °F 19.0 °F 81% 30.61 in 10.0 mi North 3.5 mph - N/A   Overcast
8:53 PM 25.0 °F - 19.9 °F 81% 30.59 in 10.0 mi Calm Calm - N/A   Overcast
9:53 PM 26.1 °F - 21.0 °F 81% 30.59 in 10.0 mi Calm Calm - N/A   Overcast
10:53 PM 28.0 °F - 21.9 °F 78% 30.57 in 10.0 mi Calm Calm - N/A   Overcast
11:53 PM 26.1 °F - 21.0 °F 81% 30.57 in 10.0 mi Calm Calm - N/A   Overcast